GW6833 Weather Reports


time (UTC)temp
C
wind
direction
speed
KPH
gust
KPH
rain 1hr
cm
rain 24hr
cm
rain mn
cm
humidity
%
barometer
mb
20260504201903 14 18 9.7 14.5 0.00 0.00 0.00 37 1011.4
20260504201400 13 357 14.5 14.5 0.00 0.00 0.00 38 1011.2
20260504200857 14 10 20.9 24.1 0.00 0.00 0.00 37 1011.5
20260504200354 14 6 11.3 17.7 0.00 0.00 0.00 37 1011.4
20260504195851 15 22 8.0 8.0 0.00 0.00 0.00 35 1011.2
20260504195346 15 8 8.0 9.7 0.00 0.00 0.00 37 1011.4
20260504194843 15 59 9.7 19.3 0.00 0.00 0.00 35 1011.0
20260504194339 15 10 27.4 29.0 0.00 0.00 0.00 35 1010.9
20260504193835 14 0 14.5 16.1 0.00 0.00 0.00 35 1011.1
20260504193332 15 341 11.3 20.9 0.00 0.00 0.00 35 1010.9
20260504192831 15 0 17.7 25.7 0.00 0.00 0.00 35 1011.1
20260504192329 14 20 25.7 29.0 0.00 0.00 0.00 36 1011.1
20260504191827 13 348 24.1 27.4 0.00 0.00 0.00 36 1011.1
20260504191324 14 10 20.9 29.0 0.00 0.00 0.00 36 1011.1
20260504190819 14 350 20.9 24.1 0.00 0.00 0.00 36 1011.0
20260504190316 14 5 17.7 30.6 0.00 0.00 0.00 36 1011.1
20260504185812 14 351 20.9 38.6 0.00 0.00 0.00 36 1011.0
20260504185309 15 354 30.6 37.0 0.00 0.00 0.00 35 1010.8
20260504184806 15 352 29.0 40.2 0.00 0.00 0.00 35 1011.0
20260504184301 15 355 33.8 40.2 0.00 0.00 0.00 35 1010.6
20260504183757 15 17 25.7 38.6 0.00 0.00 0.00 33 1010.6
20260504183254 16 5 35.4 49.9 0.00 0.00 0.00 33 1010.6
20260504182753 15 8 27.4 43.5 0.00 0.00 0.00 34 1010.5
20260504182249 15 4 35.4 40.2 0.00 0.00 0.00 36 1010.5
20260504181747 14 4 29.0 41.8 0.00 0.00 0.00 36 1010.4
20260504181244 14 357 33.8 41.8 0.00 0.00 0.00 36 1010.8
20260504180743 15 348 20.9 38.6 0.00 0.00 0.00 36 1010.6
20260504180241 15 0 30.6 49.9 0.00 0.00 0.00 34 1010.9
20260504175739 15 0 32.2 41.8 0.00 0.00 0.00 34 1010.5
20260504175235 15 10 30.6 40.2 0.00 0.00 0.00 33 1010.8
20260504174733 16 345 35.4 48.3 0.00 0.00 0.00 32 1010.8
20260504174231 16 10 29.0 45.1 0.00 0.00 0.00 30 1010.8
20260504173727 16 5 37.0 43.5 0.00 0.00 0.00 30 1010.6
20260504173224 17 2 30.6 38.6 0.00 0.00 0.00 30 1010.3
20260504172721 16 11 29.0 41.8 0.00 0.00 0.00 28 1010.5
20260504172217 16 359 30.6 37.0 0.00 0.00 0.00 29 1010.6
20260504171714 17 344 22.5 27.4 0.00 0.00 0.00 27 1010.5
20260504171211 17 0 11.3 11.3 0.00 0.00 0.00 22 1010.6
20260504170708 17 313 9.7 12.9 0.00 0.00 0.00 22 1010.4
20260504170205 17 312 14.5 20.9 0.00 0.00 0.00 22 1010.3
20260504160124 17 278 9.7 22.5 0.00 0.00 0.00 22 1010.4
20260504151051 16 281 17.7 24.1 0.00 0.00 0.00 22 1010.5
20260504150548 16 284 17.7 24.1 0.00 0.00 0.00 23 1010.5
20260504141014 13 315 20.9 27.4 0.00 0.00 0.00 28 1010.4
20260504140511 14 329 17.7 27.4 0.00 0.00 0.00 28 1010.3
20260504130435 8 357 6.4 11.3 0.00 0.00 0.00 38 1010.3
20260504110322 8 235 19.3 24.1 0.00 0.00 0.00 42 1009.9
20260504100240 7 245 12.9 19.3 0.00 0.00 0.00 46 1010.3
20260504081633 3 268 8.0 11.3 0.00 0.00 0.00 62 1011.7
20260504081129 3 276 6.4 6.4 0.00 0.00 0.00 61 1011.7
20260504080626 4 278 6.4 8.0 0.00 0.00 0.00 60 1011.6
20260504080122 4 263 6.4 8.0 0.00 0.00 0.00 59 1011.9
20260504050439 6 246 4.8 4.8 0.00 0.00 0.00 51 1013.2
20260504045936 6 246 4.8 4.8 0.00 0.00 0.00 51 1013.5
20260504045431 6 222 6.4 8.0 0.00 0.00 0.00 54 1013.2
20260504044927 6 222 6.4 8.0 0.00 0.00 0.00 54 1013.3
20260504044425 7 287 6.4 6.4 0.00 0.00 0.00 49 1013.2
20260504043923 7 287 6.4 6.4 0.00 0.00 0.00 49 1013.3
20260504043420 7 287 6.4 6.4 0.00 0.00 0.00 49 1013.2
20260504042917 7 287 6.4 6.4 0.00 0.00 0.00 49 1013.3
20260504042413 7 287 6.4 6.4 0.00 0.00 0.00 49 1013.5
20260504041910 7 287 6.4 6.4 0.00 0.00 0.00 49 1013.7
20260504041406 7 287 6.4 6.4 0.00 0.00 0.00 49 1013.5
20260504040902 7 295 8.0 8.0 0.00 0.00 0.00 48 1013.5
20260504040400 7 309 6.4 6.4 0.00 0.00 0.00 47 1013.5
20260504035855 8 318 6.4 6.4 0.00 0.00 0.00 46 1013.4
20260504035353 8 318 6.4 6.4 0.00 0.00 0.00 46 1013.5
20260504034850 8 327 6.4 6.4 0.00 0.00 0.00 46 1013.5
20260504034347 8 330 6.4 6.4 0.00 0.00 0.00 45 1013.5
20260504033844 8 345 3.2 4.8 0.00 0.00 0.00 45 1013.4
20260504033342 8 332 3.2 4.8 0.00 0.00 0.00 45 1013.4
20260504032838 8 354 3.2 3.2 0.00 0.00 0.00 44 1013.4
20260504032336 8 333 3.2 4.8 0.00 0.00 0.00 44 1013.5
20260504031833 8 5 3.2 3.2 0.00 0.00 0.00 43 1013.3
20260504031330 9 359 4.8 4.8 0.00 0.00 0.00 43 1013.5
20260504030826 9 10 3.2 4.8 0.00 0.00 0.00 42 1013.3
20260504030324 10 26 4.8 8.0 0.00 0.00 0.00 41 1013.4
20260504025819 10 29 4.8 9.7 0.00 0.00 0.00 40 1013.2
20260504025317 10 45 11.3 11.3 0.00 0.00 0.00 40 1013.2
20260504024813 10 70 8.0 9.7 0.00 0.00 0.00 40 1013.3
20260504024310 11 62 6.4 9.7 0.00 0.00 0.00 38 1013.3
20260504023806 11 34 3.2 9.7 0.00 0.00 0.00 37 1013.2
20260504023303 11 33 6.4 8.0 0.00 0.00 0.00 36 1013.2
20260504022759 11 56 8.0 14.5 0.00 0.00 0.00 36 1013.2
20260504022255 12 58 9.7 16.1 0.00 0.00 0.00 35 1013.1
20260504021752 12 41 8.0 14.5 0.00 0.00 0.00 35 1013.1
20260504021250 12 35 9.7 12.9 0.00 0.00 0.00 34 1013.1
20260504020747 12 45 6.4 12.9 0.00 0.00 0.00 34 1013.2
20260504020243 12 10 9.7 11.3 0.00 0.00 0.00 33 1013.2
20260504015739 13 28 9.7 9.7 0.00 0.00 0.00 33 1013.2
20260504015236 13 18 6.4 14.5 0.00 0.00 0.00 33 1013.1
20260504014731 13 9 12.9 16.1 0.00 0.00 0.00 32 1012.9
20260504014228 13 14 14.5 20.9 0.00 0.00 0.00 31 1013.1
20260504013726 14 38 12.9 19.3 0.00 0.00 0.00 31 1012.8
20260504013224 14 27 19.3 24.1 0.00 0.00 0.00 30 1012.9
20260504012720 15 33 17.7 22.5 0.00 0.00 0.00 29 1012.9
20260504012218 15 17 12.9 22.5 0.00 0.00 0.00 28 1013.1
20260504011715 16 358 17.7 27.4 0.00 0.00 0.00 26 1012.9
20260504011211 17 330 27.4 38.6 0.00 0.00 0.00 20 1012.9
20260504010707 17 279 11.3 11.3 0.00 0.00 0.00 19 1012.5
20260504010203 17 301 32.2 33.8 0.00 0.00 0.00 19 1012.9
20260504005700 17 272 19.3 33.8 0.00 0.00 0.00 19 1012.6
20260504005157 17 310 20.9 22.5 0.00 0.00 0.00 18 1012.6
20260504004655 17 325 22.5 27.4 0.00 0.00 0.00 18 1012.7
20260504004151 17 323 16.1 24.1 0.00 0.00 0.00 18 1012.7
20260504003648 17 317 19.3 27.4 0.00 0.00 0.00 18 1012.7
20260504003145 17 336 20.9 24.1 0.00 0.00 0.00 20 1012.8
20260504002641 17 358 16.1 20.9 0.00 0.00 0.00 22 1012.7
20260504002139 17 0 17.7 30.6 0.00 0.00 0.00 21 1012.6
20260504001637 18 319 14.5 30.6 0.00 0.00 0.00 17 1012.6
20260504001132 18 315 38.6 41.8 0.00 0.00 0.00 17 1012.5
20260504000630 18 303 30.6 37.0 0.00 0.00 0.00 15 1012.6
20260504000127 19 302 30.6 33.8 0.00 0.00 0.00 15 1012.5
20260503235625 20 293 29.0 41.8 0.00 0.00 0.00 15 1012.3
20260503235122 18 292 20.9 27.4 0.00 0.00 0.00 15 1012.6
20260503234620 19 302 27.4 30.6 0.00 0.00 0.00 15 1012.6
20260503234118 18 304 25.7 30.6 0.00 0.00 0.00 16 1012.6
20260503233614 19 320 29.0 33.8 0.00 0.00 0.00 15 1012.6
20260503233110 19 316 30.6 45.1 0.00 0.00 0.00 15 1012.5
20260503232607 19 303 22.5 32.2 0.00 0.00 0.00 15 1012.6
20260503232104 18 277 20.9 22.5 0.00 0.00 0.00 15 1012.9
20260503231602 19 296 25.7 35.4 0.00 0.00 0.00 14 1012.7
20260503231059 20 269 29.0 32.2 0.00 0.00 0.00 14 1012.5
20260503230555 19 265 19.3 29.0 0.00 0.00 0.00 14 1012.7
20260503230053 19 306 24.1 29.0 0.00 0.00 0.00 14 1012.7
20260503225549 18 297 22.5 37.0 0.00 0.00 0.00 15 1012.8
20260503225044 18 308 17.7 27.4 0.00 0.00 0.00 14 1012.7
20260503224542 19 277 17.7 22.5 0.00 0.00 0.00 15 1012.6
20260503224040 19 309 22.5 33.8 0.00 0.00 0.00 14 1012.9
20260503223538 19 285 22.5 29.0 0.00 0.00 0.00 14 1012.8
20260503223033 18 296 17.7 29.0 0.00 0.00 0.00 15 1012.9
20260503222532 18 288 24.1 33.8 0.00 0.00 0.00 14 1012.9
20260503222029 18 288 20.9 29.0 0.00 0.00 0.00 14 1013.1
20260503221527 18 280 22.5 32.2 0.00 0.00 0.00 14 1012.9
20260503221024 19 296 20.9 27.4 0.00 0.00 0.00 14 1013.3
20260503220520 19 285 16.1 20.9 0.00 0.00 0.00 15 1012.9
20260503220017 19 289 29.0 30.6 0.00 0.00 0.00 15 1012.9
20260503215515 18 286 20.9 40.2 0.00 0.00 0.00 16 1013.1
20260503215012 18 293 12.9 24.1 0.00 0.00 0.00 16 1013.3
20260503214510 18 325 17.7 22.5 0.00 0.00 0.00 15 1013.4
20260503214006 18 302 17.7 25.7 0.00 0.00 0.00 16 1013.4
20260503213505 18 302 19.3 33.8 0.00 0.00 0.00 15 1013.5
20260503213001 19 285 17.7 27.4 0.00 0.00 0.00 15 1013.8
20260503212458 19 287 19.3 24.1 0.00 0.00 0.00 15 1013.5
20260503211955 19 246 14.5 27.4 0.00 0.00 0.00 15 1013.9
20260503211453 18 272 11.3 24.1 0.00 0.00 0.00 15 1013.8
20260503210948 19 277 22.5 24.1 0.00 0.00 0.00 15 1013.8
20260503210445 18 271 14.5 24.1 0.00 0.00 0.00 16 1014.0
20260503205945 18 259 22.5 30.6 0.00 0.00 0.00 17 1014.0
20260503205443 18 296 12.9 27.4 0.00 0.00 0.00 16 1014.2
20260503204939 18 263 9.7 17.7 0.00 0.00 0.00 18 1014.3
20260503204436 18 275 6.4 12.9 0.00 0.00 0.00 19 1014.3
20260503203933 18 292 6.4 11.3 0.00 0.00 0.00 20 1014.5
20260503203430 18 279 14.5 16.1 0.00 0.00 0.00 18 1014.6
20260503202927 18 266 9.7 9.7 0.00 0.00 0.00 22 1014.6
20260503202425 17 298 8.0 9.7 0.00 0.00 0.00 21 1014.5